DW6610 Weather Reports


time (UTC)temp
C
wind
direction
speed
KPH
gust
KPH
rain 1hr
cm
rain 24hr
cm
rain mn
cm
humidity
%
barometer
mb
20260508071052 8 0 0.0 1.6 0.00 0.00 0.00 98 1017.0
20260508070552 8 0 0.0 1.6 0.00 0.00 0.00 98 1017.0
20260508070056 9 0 0.0 1.6 0.00 0.00 0.00 98 1017.1
20260508065555 9 0 0.0 0.0 0.00 0.00 0.00 98 1017.2
20260508065051 9 0 0.0 1.6 0.00 0.00 0.00 98 1017.2
20260508064554 9 0 0.0 1.6 0.00 0.00 0.00 98 1017.4
20260508064051 9 0 0.0 0.0 0.00 0.00 0.00 98 1017.4
20260508063552 9 0 0.0 0.0 0.00 0.00 0.00 98 1017.4
20260508063056 9 0 0.0 0.0 0.00 0.00 0.00 98 1017.4
20260508062551 9 0 0.0 0.0 0.00 0.00 0.00 98 1017.5
20260508062050 9 0 0.0 0.0 0.00 0.00 0.00 97 1017.4
20260508061556 9 0 0.0 0.0 0.00 0.00 0.00 97 1017.4
20260508061050 9 0 0.0 0.0 0.00 0.00 0.00 97 1017.4
20260508060550 10 0 0.0 0.0 0.00 0.00 0.00 97 1017.4
20260508060054 10 0 0.0 0.0 0.00 0.00 0.00 97 1017.4
20260508055550 10 0 0.0 0.0 0.00 0.00 0.00 97 1017.5
20260508055052 10 0 0.0 0.0 0.00 0.00 0.00 97 1017.5
20260508054635 10 0 0.0 0.0 0.00 0.00 0.00 96 1017.4
20260508054051 10 0 0.0 0.0 0.00 0.00 0.00 96 1017.5
20260508053555 10 0 0.0 1.6 0.00 0.00 0.00 96 1017.4
20260508053051 10 0 0.0 1.6 0.00 0.00 0.00 96 1017.4
20260508052555 10 0 0.0 1.6 0.00 0.00 0.00 97 1017.6
20260508052051 10 116 0.0 0.0 0.00 0.00 0.00 96 1017.5
20260508051551 10 0 0.0 0.0 0.00 0.00 0.00 96 1017.6
20260508051051 10 0 0.0 0.0 0.00 0.00 0.00 96 1017.4
20260508050553 10 0 0.0 0.0 0.00 0.00 0.00 96 1017.5
20260508050054 10 0 0.0 0.0 0.00 0.00 0.00 95 1017.6
20260508045551 10 0 0.0 0.0 0.00 0.00 0.00 95 1017.5
20260508045051 10 0 0.0 1.6 0.00 0.00 0.00 95 1017.5
20260508044600 10 0 0.0 1.6 0.00 0.00 0.00 95 1017.6
20260508044050 10 116 0.0 1.6 0.00 0.00 0.00 95 1017.6
20260508043550 10 0 0.0 1.6 0.00 0.00 0.00 95 1017.7
20260508043050 10 0 0.0 0.0 0.00 0.00 0.00 95 1017.8
20260508042550 10 0 0.0 0.0 0.00 0.00 0.00 94 1017.7
20260508042051 10 0 0.0 1.6 0.00 0.00 0.00 95 1017.7
20260508041600 10 0 0.0 1.6 0.00 0.00 0.00 94 1017.7
20260508041052 11 0 0.0 1.6 0.00 0.00 0.00 94 1017.7
20260508040551 11 0 0.0 1.6 0.00 0.00 0.00 94 1017.7
20260508040057 11 116 0.0 1.6 0.00 0.00 0.00 94 1017.7
20260508035551 11 117 0.0 1.6 0.00 0.00 0.00 94 1017.8
20260508035051 11 117 0.0 0.0 0.00 0.00 0.00 94 1017.6
20260508034602 11 0 0.0 0.0 0.00 0.00 0.00 94 1017.5
20260508034051 11 0 0.0 0.0 0.00 0.00 0.00 93 1017.6
20260508033552 11 0 0.0 1.6 0.00 0.00 0.00 93 1017.5
20260508033051 11 0 0.0 1.6 0.00 0.00 0.00 93 1017.6
20260508032556 11 0 0.0 0.0 0.00 0.00 0.00 93 1017.5
20260508032055 11 0 0.0 0.0 0.00 0.00 0.00 92 1017.7
20260508031602 11 0 0.0 0.0 0.00 0.00 0.00 93 1017.8
20260508031053 11 0 0.0 0.0 0.00 0.00 0.00 92 1017.7
20260508030552 11 0 0.0 0.0 0.00 0.00 0.00 92 1017.7
20260508030112 11 0 0.0 0.0 0.00 0.00 0.00 91 1017.6
20260508025551 12 0 0.0 0.0 0.00 0.00 0.00 90 1017.6
20260508025051 12 0 0.0 0.0 0.00 0.00 0.00 90 1017.7
20260508024606 12 0 0.0 0.0 0.00 0.00 0.00 90 1017.6
20260508024051 12 0 0.0 0.0 0.00 0.00 0.00 89 1017.6
20260508023553 12 0 0.0 0.0 0.00 0.00 0.00 88 1017.6
20260508023103 12 0 0.0 0.0 0.00 0.00 0.00 88 1017.4
20260508022551 12 0 0.0 0.0 0.00 0.00 0.00 86 1017.3
20260508022051 12 0 0.0 0.0 0.00 0.00 0.00 86 1017.3
20260508021619 13 0 0.0 0.0 0.00 0.00 0.00 86 1017.2
20260508021055 13 0 0.0 0.0 0.00 0.00 0.00 86 1017.2
20260508020551 13 0 0.0 0.0 0.00 0.00 0.00 84 1017.2
20260508020057 13 0 0.0 0.0 0.00 0.00 0.00 83 1017.1
20260508015552 13 0 0.0 0.0 0.00 0.00 0.00 83 1017.0
20260508015052 13 0 0.0 1.6 0.00 0.00 0.00 82 1017.1
20260508014559 13 0 0.0 1.6 0.00 0.00 0.00 81 1016.8
20260508014052 14 0 0.0 0.0 0.00 0.00 0.00 79 1016.9
20260508013551 14 0 0.0 0.0 0.00 0.00 0.00 78 1016.8
20260508013056 14 0 0.0 0.0 0.00 0.00 0.00 78 1016.7
20260508012551 15 0 0.0 0.0 0.00 0.00 0.00 77 1016.7
20260508012053 15 0 0.0 0.0 0.00 0.00 0.00 76 1016.7
20260508011558 15 0 0.0 0.0 0.00 0.00 0.00 75 1016.7
20260508011054 15 0 0.0 0.0 0.00 0.00 0.00 70 1016.7
20260508010551 15 0 0.0 0.0 0.00 0.00 0.00 68 1016.8
20260508010057 16 0 0.0 0.0 0.00 0.00 0.00 65 1016.6
20260508005553 16 0 0.0 0.0 0.00 0.00 0.00 64 1016.5
20260508005055 16 0 0.0 1.6 0.00 0.00 0.00 61 1016.5
20260508004558 16 0 0.0 1.6 0.00 0.00 0.00 60 1016.5
20260508004052 17 0 0.0 1.6 0.00 0.00 0.00 59 1016.6
20260508003551 17 0 0.0 1.6 0.00 0.00 0.00 59 1016.6
20260508003105 17 0 0.0 1.6 0.00 0.00 0.00 59 1016.7
20260508002549 17 117 0.0 1.6 0.00 0.00 0.00 60 1016.7
20260508002050 18 117 0.0 1.6 0.00 0.00 0.00 57 1016.5
20260508001555 18 124 0.0 3.2 0.00 0.00 0.00 54 1016.4
20260508001052 19 121 0.0 3.2 0.00 0.00 0.00 54 1016.5
20260508000551 20 155 1.6 3.2 0.00 0.00 0.00 53 1016.5
20260508000051 20 97 0.0 3.2 0.00 0.00 0.00 52 1016.4
20260507235552 20 0 1.6 3.2 0.00 0.03 0.00 51 1016.3
20260507235052 20 118 0.0 3.2 0.00 0.03 0.00 53 1016.1
20260507234551 20 101 0.0 3.2 0.00 0.03 0.00 52 1016.1
20260507234056 20 120 0.0 6.4 0.00 0.03 0.00 50 1016.3
20260507233552 20 118 0.0 6.4 0.00 0.03 0.00 53 1016.4
20260507233054 20 100 0.0 4.8 0.00 0.03 0.00 51 1016.4
20260507232552 20 172 1.6 4.8 0.00 0.03 0.00 49 1016.4
20260507232051 20 0 1.6 4.8 0.00 0.03 0.00 50 1016.3
20260507231559 21 103 1.6 4.8 0.00 0.03 0.00 49 1016.2
20260507231051 21 157 1.6 4.8 0.00 0.03 0.00 47 1016.2
20260507230553 21 155 0.0 4.8 0.00 0.03 0.00 47 1016.3
20260507230056 21 89 1.6 6.4 0.00 0.03 0.00 49 1016.3
20260507225554 21 84 1.6 6.4 0.00 0.03 0.00 48 1016.3
20260507225053 21 110 1.6 6.4 0.00 0.03 0.00 47 1016.5
20260507224601 21 96 1.6 6.4 0.00 0.03 0.00 50 1016.4
20260507224052 21 126 1.6 6.4 0.00 0.03 0.00 51 1016.4
20260507223552 21 119 1.6 6.4 0.00 0.03 0.00 46 1016.3
20260507223059 21 127 1.6 6.4 0.00 0.03 0.00 48 1016.3
20260507222555 22 213 0.0 4.8 0.00 0.03 0.00 47 1016.3
20260507222052 22 91 1.6 6.4 0.00 0.03 0.00 50 1016.4
20260507221552 22 117 0.0 6.4 0.00 0.03 0.00 46 1016.4
20260507221052 22 103 1.6 4.8 0.00 0.03 0.00 49 1016.4
20260507220553 22 130 1.6 6.4 0.00 0.03 0.00 46 1016.4
20260507220054 21 127 0.0 9.7 0.00 0.03 0.00 48 1016.4
20260507215557 21 160 1.6 9.7 0.00 0.05 0.00 44 1016.4
20260507215053 21 126 1.6 8.0 0.00 0.05 0.00 48 1016.3
20260507214559 21 116 3.2 8.0 0.00 0.05 0.00 47 1016.3
20260507214053 21 179 1.6 9.7 0.00 0.05 0.00 45 1016.3
20260507213548 21 219 3.2 9.7 0.00 0.05 0.00 49 1016.4
20260507213054 21 108 3.2 9.7 0.00 0.05 0.00 49 1016.2
20260507212550 21 167 3.2 8.0 0.00 0.05 0.00 46 1016.2
20260507212048 21 104 3.2 8.0 0.00 0.05 0.00 51 1016.3
20260507211558 21 94 3.2 9.7 0.00 0.05 0.00 53 1016.3
20260507211048 21 162 3.2 9.7 0.00 0.05 0.00 47 1016.2
20260507210552 21 141 1.6 9.7 0.00 0.05 0.00 52 1016.2
20260507210119 21 167 3.2 9.7 0.00 0.05 0.00 52 1016.3
20260507205552 21 127 1.6 8.0 0.00 0.18 0.00 51 1016.2
20260507205053 21 148 3.2 8.0 0.00 0.18 0.00 48 1016.4
20260507204602 21 108 3.2 8.0 0.00 0.18 0.00 52 1016.4
20260507204055 21 91 1.6 9.7 0.00 0.18 0.00 53 1016.4
20260507203551 21 155 0.0 9.7 0.00 0.18 0.00 49 1016.5
20260507203058 21 78 4.8 9.7 0.00 0.18 0.00 52 1016.6
20260507202552 21 72 1.6 6.4 0.00 0.18 0.00 53 1016.7
20260507202053 21 132 3.2 6.4 0.00 0.18 0.00 50 1016.7
20260507201603 21 150 1.6 4.8 0.00 0.18 0.00 52 1016.7
20260507201051 21 99 0.0 6.4 0.00 0.18 0.00 55 1016.7
20260507200552 21 117 1.6 6.4 0.00 0.18 0.00 50 1016.8
20260507200105 20 93 3.2 9.7 0.00 0.18 0.00 51 1017.0
20260507195556 21 217 4.8 9.7 0.00 0.18 0.00 50 1017.0
20260507195052 21 205 1.6 9.7 0.00 0.18 0.00 49 1016.8
20260507194552 21 105 1.6 12.9 0.00 0.18 0.00 52 1016.7
20260507194055 21 120 3.2 12.9 0.00 0.18 0.00 49 1016.7
20260507193552 21 179 1.6 8.0 0.00 0.18 0.00 52 1016.8
20260507193110 21 115 1.6 6.4 0.00 0.18 0.00 49 1017.0
20260507192553 21 195 1.6 8.0 0.00 0.18 0.00 55 1017.0
20260507192055 21 113 3.2 8.0 0.00 0.18 0.00 51 1017.1
20260507191557 21 125 3.2 11.3 0.00 0.18 0.00 50 1017.1
20260507191051 21 177 4.8 11.3 0.00 0.18 0.00 53 1017.1
20260507190551 21 120 1.6 11.3 0.00 0.18 0.00 55 1017.3
20260507190053 21 94 3.2 8.0 0.00 0.18 0.00 53 1017.4
20260507185551 21 198 3.2 9.7 0.00 0.18 0.00 51 1017.3
20260507185052 21 274 1.6 9.7 0.00 0.18 0.00 54 1017.3
20260507184551 20 116 3.2 11.3 0.00 0.18 0.00 52 1017.4
20260507184055 20 100 3.2 11.3 0.00 0.18 0.00 57 1017.3
20260507183554 20 168 3.2 11.3 0.00 0.18 0.00 53 1017.4
20260507183100 20 82 3.2 11.3 0.00 0.18 0.00 55 1017.4
20260507182552 20 134 1.6 11.3 0.00 0.18 0.00 55 1017.5
20260507182053 20 165 3.2 12.9 0.00 0.18 0.00 50 1017.6
20260507181556 20 78 4.8 12.9 0.00 0.18 0.00 58 1017.5
20260507181052 20 101 3.2 9.7 0.00 0.18 0.00 59 1017.6
20260507180552 20 90 3.2 9.7 0.00 0.18 0.00 52 1017.6
20260507180059 20 188 1.6 6.4 0.00 0.18 0.00 62 1017.6
20260507175559 20 307 1.6 6.4 0.00 0.20 0.00 52 1017.8
20260507175052 20 72 1.6 6.4 0.00 0.20 0.00 60 1017.9
20260507174608 19 139 1.6 9.7 0.00 0.20 0.00 54 1017.9
20260507174054 20 157 3.2 9.7 0.00 0.20 0.00 52 1018.0
20260507173550 20 140 1.6 8.0 0.00 0.20 0.00 58 1018.0
20260507173134 20 191 3.2 8.0 0.00 0.20 0.00 54 1018.1
20260507172554 20 139 1.6 8.0 0.00 0.20 0.00 60 1018.1
20260507172051 20 74 3.2 8.0 0.00 0.20 0.00 59 1018.2
20260507171553 20 120 3.2 11.3 0.00 0.20 0.00 57 1018.3
20260507171052 19 200 3.2 11.3 0.00 0.20 0.00 57 1018.3
20260507170553 20 195 3.2 11.3 0.00 0.20 0.00 56 1018.4
20260507170055 20 136 1.6 9.7 0.00 0.20 0.00 56 1018.4
20260507165549 19 124 1.6 14.5 0.00 0.36 0.00 61 1018.4
20260507165050 18 148 4.8 14.5 0.00 0.36 0.00 56 1018.6
20260507164600 18 162 4.8 11.3 0.00 0.36 0.00 56 1018.6
20260507164050 18 219 4.8 11.3 0.00 0.36 0.00 54 1018.7
20260507163550 19 138 1.6 19.3 0.00 0.36 0.00 63 1018.5
20260507163053 18 213 3.2 19.3 0.00 0.36 0.00 59 1018.7
20260507162557 18 96 4.8 19.3 0.00 0.36 0.00 55 1018.6
20260507162049 19 64 3.2 6.4 0.00 0.36 0.00 58 1018.6
20260507161608 19 144 0.0 6.4 0.00 0.36 0.00 64 1018.6
20260507161049 18 106 1.6 8.0 0.00 0.36 0.00 61 1018.6
20260507160552 18 172 3.2 8.0 0.00 0.36 0.00 57 1018.7
20260507160104 18 186 1.6 8.0 0.00 0.36 0.00 61 1018.7
20260507155548 18 134 1.6 11.3 0.00 0.48 0.00 61 1018.6
20260507155050 18 126 3.2 11.3 0.00 0.48 0.00 61 1018.5
20260507154552 17 188 4.8 11.3 0.00 0.48 0.00 57 1018.4
20260507154050 18 191 3.2 9.7 0.00 0.48 0.00 59 1018.5
20260507153549 18 127 3.2 9.7 0.00 0.48 0.00 61 1018.6
20260507153053 18 65 0.0 8.0 0.00 0.48 0.00 65 1018.4
20260507152549 18 192 1.6 9.7 0.00 0.48 0.00 62 1018.5
20260507152050 17 110 3.2 11.3 0.00 0.48 0.00 64 1018.6
20260507151556 17 169 3.2 11.3 0.00 0.48 0.00 65 1018.7
20260507151052 17 96 1.6 8.0 0.00 0.48 0.00 68 1018.7
20260507150550 18 118 1.6 6.4 0.00 0.48 0.00 66 1018.7
20260507150059 17 0 1.6 6.4 0.00 0.48 0.00 78 1018.7
20260507145552 17 132 1.6 6.4 0.00 0.86 0.00 72 1018.9
20260507145050 17 177 3.2 6.4 0.00 0.86 0.00 72 1019.0
20260507144601 17 238 1.6 4.8 0.00 0.86 0.00 72 1019.0
20260507144053 16 203 1.6 8.0 0.00 0.86 0.00 77 1018.9
20260507143549 16 134 1.6 8.0 0.00 0.86 0.00 76 1018.8
20260507143059 16 124 1.6 6.4 0.00 0.86 0.00 80 1018.6
20260507142551 16 95 1.6 6.4 0.00 0.86 0.00 78 1018.6
20260507142052 16 196 1.6 9.7 0.00 0.86 0.00 77 1018.6
20260507141619 16 93 1.6 9.7 0.00 0.86 0.00 80 1018.9
20260507141049 16 156 1.6 6.4 0.00 0.86 0.00 80 1018.8
20260507140552 15 166 3.2 6.4 0.00 0.86 0.00 79 1018.8
20260507140109 15 188 1.6 9.7 0.00 0.86 0.00 80 1018.7
20260507135555 15 127 0.0 9.7 0.00 0.91 0.00 84 1018.6
20260507135052 15 211 3.2 9.7 0.00 0.91 0.00 80 1018.7
20260507134608 15 153 1.6 8.0 0.00 0.91 0.00 83 1018.6
20260507134051 14 121 1.6 8.0 0.00 0.91 0.00 85 1018.6
20260507133549 14 186 1.6 8.0 0.00 0.91 0.00 84 1018.5
20260507133056 14 153 1.6 6.4 0.00 0.91 0.00 85 1018.5
20260507132549 13 167 0.0 6.4 0.00 0.91 0.00 84 1018.4
20260507132049 13 274 1.6 6.4 0.00 0.91 0.00 85 1018.4
20260507131552 13 154 1.6 6.4 0.00 0.91 0.00 88 1018.5
20260507131050 13 120 1.6 6.4 0.00 0.91 0.00 88 1018.5
20260507130552 13 173 1.6 4.8 0.00 0.91 0.00 88 1018.5
20260507130056 13 134 0.0 4.8 0.00 0.91 0.00 90 1018.3
20260507125549 12 160 0.0 4.8 0.00 0.91 0.00 89 1018.3
20260507125055 12 159 0.0 4.8 0.00 0.91 0.00 90 1018.2
20260507124553 12 0 0.0 4.8 0.00 0.91 0.00 92 1018.2
20260507124050 12 191 0.0 4.8 0.00 0.91 0.00 93 1018.1
20260507123550 11 138 0.0 3.2 0.00 0.91 0.00 94 1018.0
20260507123052 11 0 0.0 3.2 0.00 0.91 0.00 96 1018.0
20260507122549 10 174 0.0 1.6 0.00 0.91 0.00 97 1017.9
20260507122048 10 0 0.0 1.6 0.00 0.91 0.00 97 1017.8
20260507121554 10 147 0.0 4.8 0.00 0.91 0.00 98 1017.7
20260507121050 10 0 0.0 4.8 0.00 0.91 0.00 98 1017.6
20260507120552 9 139 0.0 3.2 0.00 0.91 0.00 99 1017.4
20260507120054 9 134 0.0 1.6 0.00 0.91 0.00 99 1017.4
20260507115552 8 143 0.0 1.6 0.00 0.94 0.00 99 1017.3
20260507115049 8 0 0.0 1.6 0.00 0.94 0.00 99 1017.3
20260507114559 8 0 0.0 1.6 0.00 0.94 0.00 99 1017.3
20260507114049 8 0 0.0 1.6 0.00 0.94 0.00 99 1017.2
20260507113554 8 143 0.0 1.6 0.00 0.94 0.00 99 1017.1
20260507113052 8 0 0.0 1.6 0.00 0.94 0.00 99 1017.1
20260507112553 8 0 0.0 1.6 0.00 0.94 0.00 99 1017.1
20260507112049 8 0 0.0 1.6 0.00 0.94 0.00 99 1017.1
20260507111600 8 0 0.0 1.6 0.00 0.94 0.00 98 1017.1
20260507111053 8 0 0.0 1.6 0.00 0.94 0.00 99 1017.2
20260507110549 8 0 0.0 1.6 0.00 0.94 0.00 98 1017.1
20260507110056 8 0 0.0 0.0 0.00 0.94 0.00 98 1016.9
20260507105551 8 0 0.0 0.0 0.00 1.47 0.00 98 1017.0
20260507105052 8 0 0.0 0.0 0.00 1.47 0.00 98 1016.8
20260507104555 8 0 0.0 0.0 0.00 1.47 0.00 98 1016.9
20260507104051 8 0 0.0 1.6 0.00 1.47 0.00 98 1017.0
20260507103552 8 0 0.0 1.6 0.00 1.47 0.00 98 1016.9
20260507103054 8 0 0.0 1.6 0.00 1.47 0.00 98 1017.0
20260507102549 8 0 0.0 1.6 0.00 1.47 0.00 98 1016.9
20260507102052 8 0 0.0 1.6 0.00 1.47 0.00 98 1016.9
20260507101607 9 0 0.0 1.6 0.00 1.47 0.00 98 1016.7
20260507101048 9 0 0.0 1.6 0.00 1.47 0.00 98 1016.7
20260507100549 9 0 0.0 0.0 0.00 1.47 0.00 98 1016.7
20260507100055 9 0 0.0 1.6 0.00 1.47 0.00 98 1016.8
20260507095549 9 0 0.0 1.6 0.00 1.78 0.00 98 1016.8
20260507095050 9 0 0.0 1.6 0.00 1.78 0.00 98 1017.0
20260507094555 9 0 0.0 1.6 0.00 1.78 0.00 98 1016.9
20260507094052 9 0 0.0 1.6 0.00 1.78 0.00 98 1016.7
20260507093549 9 0 0.0 0.0 0.00 1.78 0.00 98 1016.8
20260507093057 9 0 0.0 0.0 0.00 1.78 0.00 98 1016.7
20260507092604 9 0 0.0 0.0 0.00 1.78 0.00 98 1016.6
20260507092052 9 0 0.0 0.0 0.00 1.78 0.00 98 1016.6
20260507091557 9 0 0.0 1.6 0.00 1.78 0.00 97 1016.5
20260507091052 9 0 0.0 1.6 0.00 1.78 0.00 97 1016.4
20260507090551 10 0 0.0 0.0 0.00 1.78 0.00 97 1016.4
20260507090052 10 0 0.0 0.0 0.00 1.78 0.00 97 1016.4
20260507085549 10 0 0.0 0.0 0.00 3.12 0.00 97 1016.3
20260507085052 10 0 0.0 0.0 0.00 3.12 0.00 97 1016.4
20260507084555 10 0 0.0 0.0 0.00 3.12 0.00 97 1016.3
20260507084049 10 0 0.0 1.6 0.00 3.12 0.00 97 1016.2
20260507083549 10 0 0.0 1.6 0.00 3.12 0.00 97 1016.1
20260507083053 10 0 0.0 1.6 0.00 3.12 0.00 97 1016.0
20260507082551 10 0 0.0 1.6 0.00 3.12 0.00 98 1016.0
20260507082049 10 0 0.0 1.6 0.00 3.12 0.00 98 1016.0
20260507081552 10 0 0.0 0.0 0.00 3.12 0.00 98 1016.2
20260507081049 10 0 0.0 0.0 0.00 3.12 0.00 98 1016.3
20260507080549 10 0 0.0 0.0 0.00 3.12 0.00 98 1016.4
20260507080055 10 0 0.0 0.0 0.00 3.12 0.00 97 1016.4
20260507075556 10 0 0.0 0.0 0.00 3.56 0.00 97 1016.5
20260507075049 10 0 0.0 0.0 0.00 3.56 0.00 97 1016.5
20260507074557 10 0 0.0 0.0 0.00 3.56 0.00 97 1016.5
20260507074051 10 0 0.0 0.0 0.00 3.56 0.00 97 1016.4
20260507073549 10 0 0.0 0.0 0.00 3.56 0.00 96 1016.4
20260507073052 10 0 0.0 0.0 0.00 3.56 0.00 96 1016.3
20260507072550 11 0 0.0 0.0 0.00 3.56 0.00 96 1016.3
20260507072049 11 0 0.0 1.6 0.00 3.56 0.00 96 1016.5
20260507071551 11 0 0.0 1.6 0.00 3.56 0.00 96 1016.4